Flag for Brazil Weather past 2 weeks in Santarém, Pará, Brazil

Now
79 °F

Clear.


Feels Like: 82 °F
Forecast: 73 / 90 °F
Wind: 5 mph from South

Location: Santarem-Aeroporto

Current Time: Aug 28, 2015 at 9:43:01 PM

Latest Report: Aug 28, 2015 at 9:00 PM


Visibility: 10 mi

Pressure: 29.86 "Hg

Humidity: 79%

Dew point: 72 °F

Location of SantarémLocation

Historic Weather in Santarém — Graph

°F

Santarém temperature yesterday

Maximum temperature yesterday: 90 °F (at 12:00 PM)
Minimum temperature yesterday: 75 °F (at 2:00 AM)
Average temperature yesterday: 83 °F

Past Weeks' High & Low Weather Summary

 TemperatureHumidityPressure
High91 °F (Aug 19, 2:00 PM)100% (Aug 14, 2:00 AM)29.98 "Hg (Aug 14, 2:00 AM)
Low73 °F (Aug 14, 2:00 AM)55% (Aug 28, 10:00 AM)29.74 "Hg (Aug 24, 5:00 PM)
Average82 °F81%29.86 "Hg
* Reported Aug 13 8:00 PM — Aug 28 8:00 PM, Santarém, Weather by CustomWeather, © 2015

Note: Actual official high and low records may vary slightly from our data, if they occured in-between our weather recording intervals... More about our weather records

Advertising

Santarém weather history for previous 24 hours

 ConditionsComfort  
Time TempWeatherWind HumidityBarometerVisibility
8:00 PM
Fri, Aug 28
79 °FClear.No wind84%29.83 "Hg10 mi
7:00 PM84 °FPassing clouds.5 mph66%29.80 "HgN/A
6:00 PM90 °FSunny.5 mph55%29.80 "Hg10 mi
5:00 PM91 °FPassing clouds.6 mph59%29.80 "HgN/A
4:00 PM90 °FPassing clouds.7 mph63%29.80 "HgN/A
3:00 PM91 °FSunny.1 mph56%29.83 "Hg10 mi
2:00 PM91 °FSunny.9 mph56%29.86 "Hg10 mi
1:00 PM91 °FPassing clouds.8 mph59%29.92 "HgN/A
12:00 PM90 °FPassing clouds.3 mph63%29.92 "HgN/A
11:00 AM88 °FSunny.5 mph59%29.95 "Hg10 mi
10:00 AM90 °FSunny.7 mph55%29.95 "Hg10 mi
9:00 AM86 °FSunny.3 mph70%29.95 "Hg10 mi
8:00 AM81 °FSunny.No wind84%29.92 "Hg10 mi
7:00 AM73 °FClear.2 mph100%29.89 "Hg10 mi
6:00 AM73 °FPassing clouds.No wind100%29.89 "HgN/A
5:00 AM75 °FClear.No wind94%29.86 "Hg10 mi
4:00 AM75 °FClear.No wind94%29.86 "Hg10 mi
3:00 AM75 °FClear.No wind94%29.86 "Hg10 mi
2:00 AM75 °FClear.No wind94%29.86 "Hg10 mi
1:00 AM75 °FClear.No wind94%29.89 "Hg10 mi
12:00 AM77 °FClear.No wind94%29.89 "Hg10 mi
11:00 PM
Thu, Aug 27
77 °FClear.No wind94%29.89 "Hg10 mi
10:00 PM81 °FClear.3 mph84%29.89 "Hg10 mi
9:00 PM81 °FClear.3 mph84%29.86 "Hg10 mi
Weather by CustomWeather, © 2015

See weather overviewHow to use our weather pages